Weather History for KDUA - January, 2014

Change the Weather History Date:

Friday, January 24, 2014

  Actual Average (KADM) Record (KADM)
Temperature  
Mean Temperature 28 °F -  
Max Temperature 41 °F 51 °F 73 °F (1999)
Min Temperature 14 °F 32 °F 8 °F (2014)
Degree Days  
Heating Degree Days 38    
Moisture  
Dew Point 5 °F    
Average Humidity 40    
Maximum Humidity 62    
Minimum Humidity 18    
Precipitation  
Precipitation 0.00 in - - ()
Sea Level Pressure  
Sea Level Pressure 30.52 in    
Wind  
Wind Speed 7 mph (WSW)    
Max Wind Speed 14 mph    
Max Gust Speed 18 mph    
Visibility 10 miles    
Events      
Averages and records for this station are not official NWS values.
T = Trace of Precipitation, MM = Missing Value Source: NWS Daily Summary

Daily Weather History Graph

Daily Weather History Graph

Search for Another Location

Airport or City:

Trip Planner

Search our weather history database for the weather conditions in past years. The results will help you decide how hot, cold, wet, or windy it might be!

Date:

Astronomy

Jan. 24, 2014 Rise Set
Actual Time 7:27 AM CST 5:48 PM CST
Civil Twilight 7:00 AM CST 6:15 PM CST
Nautical Twilight 6:30 AM CST 6:45 PM CST
Astronomical Twilight 6:00 AM CST 7:15 PM CST
Moon 12:59 AM CST (1/24) 12:05 PM CST (1/24)
Length of Visible Light 11h 14m
Length of Day
10h 21m
Last Quarter, 44% of the Moon is Illuminated
Jan 24
Last Quarter
Jan 30
New
Feb 6
First Quarter
Feb 14
Full
Feb 22
Last Quarter

Hourly Weather History & Observations

Time (CST) Temp. Windchill Dew Point Humidity Pressure Visibility Wind Dir Wind Speed Gust Speed Precip Events Conditions
12:15 AM 21.2 °F 11.7 °F 1.4 °F 42% 30.77 in 10.0 mi North 8.1 mph - N/A   Clear
12:35 AM 21.2 °F 9.5 °F 1.4 °F 42% 30.77 in 10.0 mi North 11.5 mph - N/A   Clear
12:55 AM 21.2 °F 10.1 °F 1.4 °F 42% 30.77 in 10.0 mi North 10.4 mph - N/A   Clear
1:15 AM 21.2 °F 10.1 °F 1.4 °F 42% 30.76 in 10.0 mi North 10.4 mph 16.1 mph N/A   Clear
1:35 AM 21.2 °F 8.9 °F 1.4 °F 42% 30.75 in 10.0 mi North 12.7 mph - N/A   Clear
1:55 AM 19.4 °F 8.6 °F 1.4 °F 46% 30.76 in 10.0 mi North 9.2 mph - N/A   Clear
2:15 AM 19.4 °F 7.9 °F 1.4 °F 46% 30.77 in 10.0 mi NNE 10.4 mph - N/A   Clear
2:35 AM 19.4 °F 9.5 °F 1.4 °F 46% 30.77 in 10.0 mi North 8.1 mph - N/A   Clear
2:55 AM 17.6 °F 9.3 °F 1.4 °F 49% 30.76 in 10.0 mi NNW 5.8 mph - N/A   Clear
3:15 AM 17.6 °F 8.2 °F 1.4 °F 49% 30.75 in 10.0 mi North 6.9 mph - N/A   Clear
3:35 AM 17.6 °F 9.3 °F 1.4 °F 49% 30.74 in 10.0 mi NW 5.8 mph - N/A   Clear
3:55 AM 15.8 °F - 3.2 °F 58% 30.73 in 10.0 mi Calm Calm - N/A   Clear
4:15 AM 15.8 °F 8.6 °F 3.2 °F 58% 30.73 in 10.0 mi NNW 4.6 mph - N/A   Clear
4:35 AM 15.8 °F 7.2 °F 3.2 °F 58% 30.72 in 10.0 mi NW 5.8 mph - N/A   Clear
4:55 AM 15.8 °F 8.6 °F 3.2 °F 58% 30.71 in 10.0 mi North 4.6 mph - N/A   Clear
5:15 AM 14.0 °F - 3.2 °F 62% 30.71 in 10.0 mi Calm Calm - N/A   Clear
5:35 AM 14.0 °F - 1.4 °F 57% 30.70 in 10.0 mi Calm Calm - N/A   Clear
5:55 AM 14.0 °F 8.2 °F 3.2 °F 62% 30.70 in 10.0 mi West 3.5 mph - N/A   Clear
6:15 AM 14.0 °F 6.5 °F 3.2 °F 62% 30.70 in 10.0 mi WNW 4.6 mph - N/A   Clear
6:35 AM 14.0 °F 8.2 °F 1.4 °F 57% 30.71 in 10.0 mi WNW 3.5 mph - N/A   Clear
6:55 AM 14.0 °F 8.2 °F 1.4 °F 57% 30.70 in 10.0 mi WNW 3.5 mph - N/A   Clear
7:15 AM 14.0 °F 8.2 °F 3.2 °F 62% 30.70 in 10.0 mi WNW 3.5 mph - N/A   Clear
7:35 AM 14.0 °F 6.5 °F 3.2 °F 62% 30.69 in 10.0 mi WNW 4.6 mph - N/A   Clear
7:55 AM 15.8 °F 10.2 °F 3.2 °F 58% 30.69 in 10.0 mi NW 3.5 mph - N/A   Clear
8:15 AM 19.4 °F 12.8 °F 3.2 °F 49% 30.68 in 10.0 mi NW 4.6 mph - N/A   Clear
8:35 AM 21.2 °F 14.9 °F 5.0 °F 50% 30.68 in 10.0 mi West 4.6 mph - N/A   Clear
8:55 AM 23.0 °F 17.0 °F 3.2 °F 43% 30.68 in 10.0 mi NW 4.6 mph - N/A   Clear
9:15 AM 24.8 °F - 5.0 °F 43% 30.67 in 10.0 mi Calm Calm - N/A   Clear
9:35 AM 26.6 °F 22.6 °F 5.0 °F 40% 30.67 in 10.0 mi West 3.5 mph - N/A   Clear
9:55 AM 26.6 °F 22.6 °F 8.6 °F 47% 30.66 in 10.0 mi West 3.5 mph - N/A   Clear
10:15 AM 26.6 °F 20.0 °F 10.4 °F 51% 30.66 in 10.0 mi West 5.8 mph - N/A   Clear
10:35 AM 28.4 °F 22.2 °F 10.4 °F 47% 30.66 in 10.0 mi WSW 5.8 mph - N/A   Clear
10:55 AM 30.2 °F 22.6 °F 10.4 °F 44% 30.65 in 10.0 mi WSW 8.1 mph - N/A   Clear
11:15 AM 32.0 °F 26.4 °F 8.6 °F 38% 30.64 in 10.0 mi WSW 5.8 mph - N/A   Clear
11:35 AM 32.0 °F 25.6 °F 8.6 °F 38% 30.62 in 10.0 mi SW 6.9 mph - N/A   Clear
11:55 AM 32.0 °F 25.6 °F 5.0 °F 32% 30.60 in 10.0 mi WSW 6.9 mph - N/A   Clear
12:15 PM 33.8 °F 28.6 °F 3.2 °F 28% 30.58 in 10.0 mi WSW 5.8 mph - N/A   Clear
12:35 PM 35.6 °F 31.7 °F 3.2 °F 26% 30.55 in 10.0 mi WSW 4.6 mph - N/A   Clear
12:55 PM 35.6 °F 29.9 °F 3.2 °F 26% 30.52 in 10.0 mi WSW 6.9 mph - N/A   Clear
1:15 PM 35.6 °F 29.2 °F 3.2 °F 26% 30.50 in 10.0 mi SW 8.1 mph - N/A   Clear
1:35 PM 35.6 °F 28.0 °F 1.4 °F 24% 30.47 in 10.0 mi SW 10.4 mph - N/A   Clear
1:55 PM 37.4 °F 30.8 °F 1.4 °F 22% 30.45 in 10.0 mi SSW 9.2 mph - N/A   Clear
2:15 PM 39.2 °F 32.5 °F 1.4 °F 21% 30.44 in 10.0 mi SW 10.4 mph - N/A   Clear
2:35 PM 39.2 °F 32.5 °F -0.4 °F 19% 30.43 in 10.0 mi WSW 10.4 mph 18.4 mph N/A   Clear
2:55 PM 41.0 °F 34.3 °F -0.4 °F 18% 30.42 in 10.0 mi SW 11.5 mph 16.1 mph N/A   Clear
3:15 PM 41.0 °F 33.5 °F -0.4 °F 18% 30.40 in 10.0 mi SW 13.8 mph - N/A   Clear
3:35 PM 41.0 °F 33.5 °F 1.4 °F 19% 30.40 in 10.0 mi WSW 13.8 mph - N/A   Clear
3:55 PM 41.0 °F 33.9 °F 3.2 °F 21% 30.37 in 10.0 mi SSW 12.7 mph - N/A   Clear
4:15 PM 41.0 °F 34.3 °F 5.0 °F 23% 30.37 in 10.0 mi SSW 11.5 mph - N/A   Clear
4:35 PM 41.0 °F 34.3 °F 3.2 °F 21% 30.35 in 10.0 mi SSW 11.5 mph - N/A   Clear
4:55 PM 41.0 °F 35.2 °F 5.0 °F 23% 30.35 in 10.0 mi SW 9.2 mph - N/A   Clear
5:15 PM 39.2 °F 31.6 °F 5.0 °F 24% 30.34 in 10.0 mi SW 12.7 mph - N/A   Clear
5:35 PM 37.4 °F 30.3 °F 5.0 °F 26% 30.34 in 10.0 mi SSW 10.4 mph - N/A   Clear
5:55 PM 35.6 °F 28.0 °F 6.8 °F 30% 30.33 in 10.0 mi SSW 10.4 mph - N/A   Clear
6:15 PM 33.8 °F 26.4 °F 5.0 °F 30% 30.31 in 10.0 mi South 9.2 mph - N/A   Clear
6:35 PM 33.8 °F 25.8 °F 8.6 °F 35% 30.30 in 10.0 mi SSW 10.4 mph - N/A   Clear
6:55 PM 33.8 °F 26.4 °F 6.8 °F 32% 30.30 in 10.0 mi SSW 9.2 mph - N/A   Clear
7:15 PM 32.0 °F 25.6 °F 6.8 °F 35% 30.30 in 10.0 mi SSW 6.9 mph - N/A   Clear
7:35 PM 32.0 °F 26.4 °F 6.8 °F 35% 30.30 in 10.0 mi SSW 5.8 mph - N/A   Clear
7:55 PM 32.0 °F 25.6 °F 6.8 °F 35% 30.29 in 10.0 mi SSW 6.9 mph - N/A   Clear
8:15 PM 32.0 °F 25.6 °F 6.8 °F 35% 30.28 in 10.0 mi SSW 6.9 mph - N/A   Clear
8:35 PM 32.0 °F 25.6 °F 6.8 °F 35% 30.28 in 10.0 mi SSW 6.9 mph - N/A   Clear
8:55 PM 30.2 °F 22.6 °F 5.0 °F 34% 30.26 in 10.0 mi SSW 8.1 mph - N/A   Clear
9:15 PM 30.2 °F 22.6 °F 8.6 °F 40% 30.25 in 10.0 mi SSW 8.1 mph - N/A   Clear
9:35 PM 32.0 °F 23.6 °F 8.6 °F 38% 30.24 in 10.0 mi SW 10.4 mph - N/A   Clear
9:55 PM 32.0 °F 23.6 °F 8.6 °F 38% 30.23 in 10.0 mi SSW 10.4 mph - N/A   Clear
10:15 PM 32.0 °F 24.2 °F 10.4 °F 41% 30.22 in 10.0 mi SSW 9.2 mph - N/A   Clear
10:35 PM 32.0 °F 24.8 °F 10.4 °F 41% 30.22 in 10.0 mi SSW 8.1 mph - N/A   Clear
10:55 PM 32.0 °F 27.5 °F 10.4 °F 41% 30.21 in 10.0 mi SSW 4.6 mph - N/A   Clear
11:15 PM 30.2 °F 24.3 °F 10.4 °F 44% 30.20 in 10.0 mi SSW 5.8 mph - N/A   Clear
11:35 PM 32.0 °F 26.4 °F 12.2 °F 44% 30.19 in 10.0 mi SSW 5.8 mph - N/A   Clear
11:55 PM 32.0 °F 27.5 °F 12.2 °F 44% 30.18 in 10.0 mi SSW 4.6 mph - N/A   Clear